Regional Weather Roundup
Issued by NWS

Home | Current Version | Previous Version | Graphics & Text | Print | Product List | Glossary Off
Versions: 1 2 3 4 5 6 7 8 9 10 11 12 13 14 15 16 17 18 19 20 21 22 23 24 25 26 27 28 29 30 31 32 33 34 35 36 37 38 39 40 41 42 43 44 45 46 47 48 49 50

000
ASUS43 KTOP 012159
RWRKS

WEATHER ROUNDUP FOR KANSAS
NATIONAL WEATHER SERVICE GOODLAND KS
500 PM CDT WED JUL 01 2015

NOTE:  "FAIR" INDICATES FEW OR NO CLOUDS BELOW 12,000 FEET WITH NO
SIGNIFICANT WEATHER AND/OR OBSTRUCTIONS TO VISIBILITY.

KSZ001>006-013>018-027>032-041>047-012300-
NORTHWEST KANSAS

CITY           SKY/WX    TMP DP  RH WIND       PRES   REMARKS
GOODLAND       SUNNY     95  49  20 N10G22    29.97F
HAYS           SUNNY     99  55  23 NE18G24   29.84F HX  97
HILL CITY      SUNNY     99  57  24 NE14G23   29.88S HX  98
RUSSELL        SUNNY     98  60  28 NE16      29.81F HX  98
$$

KSZ061>065-074>080-084>089-012300-
SOUTHWEST KANSAS

CITY           SKY/WX    TMP DP  RH WIND       PRES   REMARKS
DODGE CITY     MOSUNNY   96  57  27 NE15      29.87F HX  95
ELKHART          N/A     98  55  23 MISG        N/A  HX  96
GARDEN CITY    SUNNY     97  54  23 E12       29.89F HX  95
GREAT BEND     SUNNY     97  63  32 NE16      29.83R HX  98
LIBERAL        PTSUNNY   97  61  30 NE15      29.91S HX  97
$$

KSZ066>073-081>083-090>101-012300-
SOUTHEAST KANSAS

CITY           SKY/WX    TMP DP  RH WIND       PRES   REMARKS
CHANUTE        LGT RAIN  84  75  74 S14       29.79F
COFFEYVILLE    CLOUDY    89  73  59 S13       29.82F HX  97
HUTCHINSON     MOSUNNY   97  61  30 CALM      29.78F HX  97
MEDICINE LODGE   N/A    103  61  25 W7        29.76F HX 104
PARSONS        LGT RAIN  86  75  69 S12       29.82F HX  95
WICHITA INTL   PTSUNNY   94  69  44 SW5       29.76F HX  99
WICHITA JABRA  CLOUDY    93  67  42 S6        29.77F HX  96
WINFIELD       CLOUDY    97  62  31 S12       29.79F HX  98
$$

KSZ007>012-019>026-033>040-048>060-102>105-012300-
NORTHEAST KANSAS

CITY           SKY/WX    TMP DP  RH WIND       PRES   REMARKS
CONCORDIA      SUNNY     91  69  48 NE9       29.81F HX  96
EMPORIA        PTSUNNY   89  69  51 CALM      29.79S
LAWRENCE       MOSUNNY   88  75  65 SE8       29.79S HX  97
MANHATTAN      SUNNY     95  65  37 NW5       29.77F HX  97
OLATHE IND     PTSUNNY   86  75  69 SE13      29.82F HX  95
OLATHE EXE     PTSUNNY   83  75  77 S12       29.81F
SALINA         MOSUNNY   97  62  31 NE6       29.79S HX  98
TOPEKA BILLARD SUNNY     92  67  43 SW7       29.78S HX  95
TOPEKA FORBES  SUNNY     94  67  41 SW12      29.79S HX  97
$$



USA.gov is the U.S. government's official web portal to all federal, state and local government web resources and services.